Temperature
25 25 25 27 27 27 27 27 26 27 28 27 26 25 25 25 24 23 21 20 19 18 18 17 17 16 16 16 16 16 16 17 17 17 16 16 16 16 16 16 16 16 16 16
26 26 27 28 28 27 26 26 26 27 28 27 25 25 25 24 23 22 20 19 18 17 17 16 16 15 15 15 15 16 15 16 16 16 16 16 16 15 15 15 15 15 15 15
26 27 28 27 27 26 26 26 26 26 27 26 25 24 24 23 22 20 19 18 17 16 15 15 15 15 15 15 15 15 15 15 15 15 15 15 15 15 15 15 15 15 15 15
27 28 28 27 26 26 25 27 26 26 25 25 25 23 23 22 21 19 18 17 16 15 15 14 14 14 14 14 14 14 14 15 15 15 15 14 14 14 14 14 14 14 14 14
27 27 27 26 27 27 26 27 26 26 25 24 24 23 23 22 20 18 17 16 15 15 14 14 13 13 13 13 13 13 14 14 14 14 14 14 14 13 13 13 13 13 13 13
27 28 28 27 27 27 27 26 25 25 25 23 23 22 22 20 19 18 16 15 15 14 13 13 13 13 12 12 13 13 13 13 13 13 13 13 13 13 13 13 12 12 12 12
25 27 28 27 26 26 26 24 22 22 21 21 21 21 20 19 19 18 16 15 14 14 13 12 12 12 12 12 12 12 12 12 12 12 12 12 12 12 12 12 11 11 11 11
24 24 26 27 26 25 25 24 21 20 20 20 20 19 18 18 18 17 15 14 14 13 12 11 11 11 11 11 11 11 11 11 11 11 11 11 11 11 11 11 11 11 11 11
24 24 26 27 27 26 24 24 24 22 21 21 20 18 17 17 16 16 15 14 13 12 11 11 10 10 10 10 10 10 10 10 10 10 11 11 11 11 10 10 10 10 10 10
25 24 25 26 27 26 25 24 23 22 20 19 20 19 17 16 16 16 15 13 12 11 11 10 10 9 9 9 9 9 9 9 9 10 10 10 10 10 10 9 9 9 9 9
25 24 24 25 25 24 24 24 23 22 21 19 18 18 18 17 16 15 14 13 12 11 10 10 9 9 8 8 9 9 9 9 9 9 9 9 9 9 9 9 8 8 8 8
25 23 23 24 25 25 25 24 23 21 20 20 19 17 18 18 16 15 13 12 11 10 10 9 9 9 8 8 8 8 8 8 8 8 8 8 8 8 8 8 7 7 7 7
25 23 21 21 22 23 23 24 24 23 22 20 19 17 17 17 15 14 12 11 10 9 9 9 8 8 8 7 7 7 7 7 7 7 7 7 7 7 7 7 7 7 7 6
24 22 21 19 20 21 22 23 24 23 22 20 20 18 16 16 15 13 12 10 10 9 9 8 8 7 7 7 7 7 7 7 6 6 6 6 6 6 6 6 6 6 6 6
23 22 22 22 23 23 23 23 24 23 23 21 20 19 17 16 15 13 11 10 9 9 8 8 7 7 6 6 6 6 6 6 6 6 6 6 6 6 6 6 6 6 6 6
23 22 22 22 23 24 23 24 23 23 23 22 20 18 17 16 14 12 11 10 9 9 8 7 7 7 6 6 6 6 6 6 5 5 5 5 5 5 5 6 5 5 5 5
23 21 21 21 23 23 22 23 23 22 22 21 19 17 16 15 14 12 11 10 9 8 8 7 7 6 6 6 6 6 5 5 5 5 5 5 5 5 5 5 5 5 5 5
22 21 21 21 21 20 21 23 23 22 22 21 19 17 16 14 12 11 10 10 8 8 7 7 6 6 6 6 6 5 5 5 5 5 5 5 5 5 5 5 5 5 5 5
23 22 21 20 19 20 21 22 22 22 20 20 18 17 15 13 11 10 10 9 8 7 7 7 6 6 6 6 6 6 6 5 5 5 5 5 5 5 5 5 5 5 5 5
23 22 21 20 19 19 20 22 23 22 19 19 18 16 15 14 13 10 9 8 8 7 7 6 6 6 6 6 6 6 6 6 6 6 5 5 5 5 5 5 5 5 5 5
22 22 21 21 20 19 21 22 22 19 17 18 17 16 15 14 13 10 8 8 7 7 6 6 6 6 6 6 6 6 6 6 6 6 5 5 5 5 5 5 5 5 5 5
22 22 21 21 20 18 21 21 20 18 18 17 16 14 12 11 9 8 8 7 7 6 6 6 6 6 6 6 6 6 5 5 6 5 5 5 5 5 5 5 5 5 5 5
23 22 22 21 19 19 19 18 18 17 17 16 14 13 11 10 9 8 7 7 6 6 6 6 6 6 6 6 6 6 5 6 6 5 5 5 5 5 5 6 6 6 6 6
22 23 22 21 20 19 18 17 17 16 16 14 13 12 11 9 8 7 7 6 6 6 6 6 6 6 6 6 6 6 6 6 6 6 6 5 5 5 5 6 6 6 6 6
22 22 22 20 19 19 18 17 16 15 14 13 12 11 10 9 8 7 7 6 6 6 6 6 6 6 6 6 6 6 6 6 6 6 6 6 6 6 5 6 5 5 5 5
23 22 22 21 20 20 17 16 15 14 13 12 11 10 9 8 8 7 7 7 6 6 6 6 6 6 6 6 6 6 6 6 6 6 6 6 6 6 6 6 5 5 5 5
Wind_Speed
13 13 12 10 9 10 12 11 11 9 5 6 7 7 5 3 3 3 4 4 7 7 8 9 9 8 8 8 7 5 4 3 3 3 3 2 2 2 3 4 5 5 4 3
14 15 13 8 6 8 12 12 12 10 6 6 8 10 6 5 4 5 6 7 7 8 10 10 10 10 9 8 8 7 5 4 3 1 2 2 3 3 3 3 6 6 5 3
15 9 7 7 9 10 12 12 12 11 9 8 11 13 10 6 7 7 7 7 8 10 10 10 10 9 9 9 8 7 6 5 4 3 2 3 4 3 2 3 4 5 6 6
12 10 6 8 11 11 12 11 11 12 13 12 12 12 8 8 8 8 8 8 9 10 9 9 9 9 9 9 8 8 7 6 6 4 4 4 4 3 2 3 4 6 8 7
11 9 9 11 10 9 11 12 13 15 15 16 13 11 8 8 9 10 9 9 8 8 8 9 10 9 9 9 8 8 8 8 7 6 4 5 5 4 4 5 7 7 7 9
14 12 10 10 9 8 10 12 14 15 13 15 13 11 7 5 9 11 11 10 8 9 9 9 10 9 9 10 10 9 9 9 9 8 7 7 7 7 7 7 7 6 6 6
13 13 11 9 9 9 9 9 8 8 7 9 8 6 2 5 8 12 14 12 9 9 9 9 10 10 10 11 11 10 10 10 9 9 9 8 7 8 8 7 7 7 6 6
11 8 6 6 7 8 7 9 8 7 8 8 5 2 3 7 9 13 14 13 11 10 10 11 10 10 10 10 11 10 10 10 9 9 9 8 8 7 7 8 7 8 6 6
7 5 5 7 6 8 8 8 8 9 13 11 3 2 4 7 9 11 13 12 11 11 11 11 10 10 10 11 10 11 11 11 10 10 10 10 10 9 9 9 8 7 6 6
7 8 8 7 7 7 7 8 6 7 7 7 6 1 2 8 9 10 11 11 11 10 10 10 9 10 10 10 11 11 11 11 10 10 10 10 10 10 9 9 10 8 8 7
6 7 9 7 7 7 6 6 6 6 6 5 5 2 2 7 9 10 11 11 10 10 9 9 9 10 10 10 11 11 11 11 11 11 11 11 10 10 10 9 9 8 7 7
3 5 9 10 6 5 8 6 6 6 6 5 5 1 3 7 11 12 12 12 11 10 9 10 10 10 10 10 11 11 11 11 10 11 11 11 10 10 10 9 9 7 7 7
4 3 6 7 5 5 6 6 6 5 5 6 5 0 6 10 12 12 12 11 11 10 9 10 10 10 10 10 10 10 10 10 10 10 11 11 10 10 9 8 7 7 7 7
3 4 6 6 7 7 6 7 7 5 5 5 3 2 6 9 11 11 11 11 11 10 9 10 10 10 10 9 9 10 10 9 10 10 11 10 9 8 8 8 7 7 7 7
3 6 7 9 10 10 8 7 6 6 7 6 2 2 7 9 11 12 11 11 11 10 10 10 10 10 9 9 9 9 9 9 9 9 10 9 9 8 7 7 7 6 6 7
3 6 9 10 11 9 8 6 5 5 6 4 2 5 9 11 11 11 11 11 11 11 11 11 10 10 9 9 9 9 8 8 8 8 9 9 8 7 7 6 6 7 7 7
4 5 8 10 10 8 5 3 3 3 4 4 4 7 11 10 10 11 11 11 12 12 11 11 10 10 9 8 8 8 7 7 7 8 8 7 7 6 6 7 7 6 6 7
6 6 6 8 9 6 1 2 2 2 5 7 10 12 11 11 11 10 11 12 12 12 12 11 10 10 9 8 7 7 7 7 7 7 7 7 6 7 6 6 6 6 6 6
6 6 6 5 5 4 1 2 2 2 4 8 11 13 13 14 12 8 9 12 12 12 11 11 10 9 8 7 7 7 6 6 7 7 6 6 6 6 5 6 5 4 4 5
7 6 6 6 6 3 2 4 3 2 4 8 10 12 12 11 7 7 11 13 13 12 11 11 9 9 8 7 6 7 7 7 7 7 7 6 5 5 5 5 4 4 3 4
9 8 8 9 6 1 3 3 2 1 4 6 9 10 10 5 7 14 15 14 13 13 12 10 9 8 8 8 7 7 7 7 6 6 7 6 5 4 5 5 4 3 3 4
5 4 5 6 3 1 5 3 4 6 8 8 11 13 14 15 18 17 16 15 15 13 12 10 9 9 8 7 7 7 7 6 6 6 6 5 4 4 6 5 4 4 3 4
1 1 1 3 4 7 8 9 9 9 10 11 13 16 18 18 17 17 16 15 14 13 12 10 10 9 8 7 6 7 6 5 6 6 6 5 5 4 4 4 3 3 3 3
2 2 1 5 9 9 10 10 10 11 12 14 16 17 18 18 18 17 15 14 13 12 11 10 10 10 9 7 6 6 6 6 6 6 5 5 5 4 4 4 5 6 6 5
1 1 1 5 10 10 9 10 12 13 15 16 17 17 18 19 18 17 15 14 12 11 9 9 9 9 9 8 7 6 6 6 5 4 4 4 5 5 6 7 6 7 7 6
1 1 1 3 9 7 12 12 14 15 15 17 18 17 17 17 18 16 15 13 12 11 10 9 9 9 9 8 8 7 6 5 4 3 3 3 4 4 5 6 7 10 8 9
Wind_Direction
225 233 245 244 242 276 301 300 292 281 264 255 257 251 239 223 164 118 109 99 94 79 67 57 54 53 47 51 55 61 58 60 84 117 166 185 149 104 85 72 66 57 40 35
237 236 249 261 272 278 281 280 279 277 270 267 269 259 230 206 170 135 123 107 92 80 65 54 49 47 41 47 48 51 50 45 47 67 162 153 119 92 88 76 62 53 49 39
244 248 234 255 260 261 268 270 278 288 284 259 259 256 232 171 134 116 109 104 95 83 70 59 52 43 43 41 39 41 48 47 51 48 73 104 101 93 75 67 62 47 46 47
251 255 249 258 264 266 273 282 289 285 278 269 257 263 243 175 148 131 112 100 88 77 73 64 56 48 44 43 41 41 47 50 51 62 83 105 111 114 96 82 69 61 52 49
257 255 252 258 267 278 286 296 291 282 275 272 264 261 245 176 157 139 120 105 96 88 78 69 59 52 45 43 46 44 48 51 49 57 74 89 98 101 95 83 76 68 56 50
265 264 260 264 270 273 283 287 284 275 272 271 276 269 250 167 160 147 132 120 108 99 86 74 66 60 52 47 48 50 53 50 48 52 59 74 86 92 89 83 81 71 63 53
260 258 250 247 262 269 274 279 284 285 277 271 302 291 5 111 139 146 139 129 118 105 90 77 64 56 53 48 45 48 53 54 54 58 61 68 80 87 85 84 82 77 67 62
266 268 259 241 257 279 280 273 275 289 288 289 285 284 77 81 104 122 124 122 113 99 86 74 65 58 56 55 51 52 57 56 58 64 66 69 72 78 80 79 83 84 80 74
293 299 274 270 268 275 280 272 282 287 284 289 274 138 109 86 102 119 122 117 106 95 84 74 65 60 58 56 56 58 61 58 57 63 69 72 75 80 84 85 82 84 87 87
281 290 274 268 260 252 272 295 303 292 294 295 296 252 176 161 152 135 126 116 107 98 91 82 72 66 63 63 59 60 63 64 62 65 69 74 76 80 84 84 80 80 79 80
273 290 288 278 269 285 274 267 278 290 304 305 302 345 138 167 153 138 130 122 114 105 97 89 82 77 73 71 68 67 66 66 67 69 71 72 72 74 78 80 81 79 78 80
291 296 296 299 304 296 276 280 287 289 296 298 301 353 70 119 127 130 128 121 113 106 100 94 87 79 74 72 72 72 71 72 74 78 79 76 74 74 76 76 75 76 75 77
335 306 299 313 334 321 296 294 282 285 296 299 308 73 88 110 116 123 124 121 116 110 103 96 90 84 79 76 76 77 75 76 79 80 82 80 77 76 76 77 77 75 74 75
307 281 281 284 285 281 278 287 299 304 301 304 314 138 134 135 128 126 125 125 121 117 111 103 96 89 86 83 81 82 81 81 83 83 83 80 78 78 79 78 77 78 79 81
280 280 283 273 264 268 273 283 301 310 313 317 321 112 148 149 140 138 137 136 129 122 114 108 104 100 97 93 89 88 88 84 84 88 88 84 82 81 80 81 79 80 82 86
232 289 295 283 272 268 273 288 310 316 323 333 53 86 116 124 128 136 141 140 134 126 121 117 113 108 104 102 99 97 95 94 92 90 90 91 89 87 86 87 84 80 78 77
250 261 289 294 294 287 287 315 338 338 3 10 36 111 123 125 135 144 144 141 135 130 125 121 117 111 108 105 104 104 104 104 101 97 95 96 96 95 96 93 88 83 81 81
260 276 285 286 297 285 158 63 54 33 51 69 100 118 124 125 122 125 137 138 134 131 127 124 121 117 115 114 112 109 106 105 103 104 101 100 96 90 85 85 84 81 81 85
226 261 274 282 293 301 92 95 50 38 73 88 109 116 118 121 114 111 122 129 130 129 125 122 122 121 122 123 125 120 111 107 105 102 99 97 94 93 91 88 88 92 93 95
207 227 255 278 295 306 106 74 63 88 104 90 117 132 141 152 147 138 130 125 123 123 123 123 123 125 123 121 117 111 110 106 100 98 99 96 87 85 90 94 93 95 102 108
208 221 245 264 270 29 42 12 313 313 114 106 124 137 148 148 114 129 130 125 125 126 127 127 127 124 121 120 112 106 103 100 96 93 95 95 96 96 94 91 93 96 90 93
219 232 252 271 276 96 5 8 51 101 116 116 120 120 114 109 115 124 128 128 129 129 131 132 129 123 123 121 114 107 103 107 108 101 97 95 90 87 88 86 87 93 97 107
220 37 18 46 87 95 70 84 100 112 114 116 120 121 122 123 125 128 129 130 132 136 137 135 130 126 124 121 118 115 114 113 103 98 97 94 86 77 81 90 96 99 96 99
123 86 128 113 115 108 101 102 102 105 110 114 120 125 127 128 130 131 131 133 136 139 136 133 130 129 128 128 124 116 115 106 102 102 104 109 105 93 71 53 51 57 49 47
124 177 157 119 127 123 118 113 111 110 112 116 120 125 129 131 133 134 135 137 138 136 132 134 134 134 131 131 127 122 114 110 112 116 120 114 107 102 84 71 53 66 59 54
86 95 252 149 152 143 130 125 124 123 123 124 124 125 130 133 134 136 137 137 137 137 136 137 136 133 131 130 123 122 124 125 120 116 123 126 126 124 121 116 95 64 81 80
Height
1474 1475 1471 1464 1462 1462 1461 1462 1462 1457 1453 1459 1464 1466 1466 1469 1471 1475 1478 1481 1483 1486 1487 1488 1489 1491 1491 1492 1493 1494 1496 1497 1499 1501 1504 1506 1507 1509 1511 1513 1515 1517 1519 1521
1470 1468 1461 1458 1458 1462 1463 1465 1462 1456 1453 1458 1464 1465 1464 1468 1471 1475 1478 1482 1485 1488 1489 1490 1491 1491 1491 1491 1492 1493 1495 1496 1497 1499 1502 1504 1505 1507 1509 1511 1513 1515 1517 1519
1465 1459 1455 1458 1460 1463 1463 1463 1461 1460 1456 1457 1464 1467 1464 1467 1471 1476 1480 1484 1487 1489 1491 1492 1493 1493 1493 1493 1493 1494 1495 1496 1497 1499 1500 1503 1504 1506 1507 1509 1511 1514 1516 1517
1457 1453 1454 1458 1459 1459 1464 1456 1457 1459 1462 1464 1462 1474 1466 1467 1471 1477 1482 1486 1490 1492 1494 1495 1495 1495 1494 1494 1494 1494 1495 1496 1497 1499 1499 1500 1502 1504 1506 1507 1509 1511 1514 1515
1456 1452 1454 1458 1456 1456 1458 1454 1456 1457 1459 1463 1461 1469 1466 1465 1474 1480 1485 1489 1492 1495 1497 1497 1496 1496 1496 1496 1495 1495 1495 1496 1497 1498 1499 1500 1502 1503 1505 1507 1508 1510 1512 1513
1452 1449 1450 1451 1451 1453 1453 1456 1457 1456 1459 1472 1465 1469 1470 1469 1472 1479 1486 1490 1494 1496 1498 1497 1497 1497 1497 1496 1496 1496 1496 1496 1497 1499 1499 1500 1502 1503 1504 1506 1508 1509 1510 1512
1457 1450 1447 1449 1453 1452 1454 1465 1477 1478 1481 1478 1468 1470 1477 1470 1472 1478 1484 1490 1495 1497 1498 1498 1498 1498 1498 1497 1497 1497 1497 1497 1498 1499 1500 1501 1502 1504 1505 1507 1508 1509 1510 1511
1463 1461 1451 1448 1452 1456 1457 1464 1480 1492 1490 1478 1474 1478 1481 1475 1476 1481 1486 1491 1495 1497 1499 1499 1499 1499 1499 1499 1498 1498 1499 1499 1499 1499 1500 1502 1503 1505 1506 1508 1509 1509 1510 1511
1461 1462 1450 1448 1448 1451 1457 1459 1458 1469 1471 1474 1475 1479 1483 1480 1482 1485 1490 1493 1496 1498 1499 1500 1501 1501 1501 1501 1500 1500 1500 1501 1501 1501 1501 1503 1504 1505 1507 1508 1509 1510 1511 1512
1453 1462 1453 1447 1447 1448 1452 1454 1461 1469 1481 1485 1477 1480 1486 1485 1486 1488 1492 1495 1498 1500 1500 1501 1503 1503 1503 1503 1502 1501 1502 1502 1503 1503 1503 1504 1505 1507 1508 1509 1510 1511 1512 1513
1450 1460 1457 1450 1452 1454 1454 1457 1459 1463 1468 1483 1489 1488 1477 1480 1483 1488 1493 1497 1499 1501 1502 1503 1504 1505 1506 1505 1505 1504 1505 1505 1505 1505 1505 1506 1507 1508 1509 1511 1512 1513 1513 1514
1451 1458 1463 1456 1448 1447 1449 1453 1457 1470 1473 1472 1480 1490 1476 1477 1483 1489 1494 1498 1500 1502 1504 1505 1506 1507 1507 1507 1507 1507 1507 1507 1507 1508 1508 1508 1509 1510 1512 1513 1513 1515 1516 1517
1453 1462 1473 1471 1467 1458 1455 1451 1452 1455 1462 1471 1479 1489 1480 1482 1487 1491 1496 1499 1501 1503 1505 1507 1507 1508 1509 1509 1510 1510 1509 1510 1510 1510 1511 1511 1512 1513 1515 1516 1517 1518 1519 1520
1456 1462 1472 1482 1475 1464 1459 1454 1451 1454 1463 1469 1472 1479 1482 1484 1489 1494 1497 1500 1503 1505 1507 1508 1509 1510 1511 1512 1512 1512 1512 1513 1513 1514 1514 1515 1516 1517 1518 1519 1520 1521 1522 1523
1457 1462 1462 1460 1456 1454 1453 1452 1450 1453 1455 1462 1467 1472 1478 1483 1488 1494 1498 1501 1504 1506 1508 1510 1511 1513 1514 1514 1515 1515 1516 1516 1517 1517 1518 1518 1520 1521 1522 1523 1523 1524 1525 1527
1457 1462 1460 1459 1451 1448 1450 1448 1450 1452 1453 1457 1463 1473 1477 1484 1490 1494 1499 1502 1504 1507 1509 1512 1513 1515 1516 1517 1518 1519 1519 1520 1521 1521 1522 1523 1524 1525 1526 1527 1527 1528 1529 1530
1455 1461 1465 1464 1452 1450 1458 1451 1452 1454 1454 1459 1467 1475 1480 1486 1491 1495 1499 1502 1505 1508 1511 1513 1515 1517 1519 1520 1521 1522 1523 1524 1524 1525 1526 1527 1527 1528 1529 1530 1530 1531 1532 1533
1456 1459 1462 1463 1463 1472 1459 1448 1450 1454 1456 1460 1467 1475 1481 1487 1492 1497 1500 1503 1506 1509 1512 1515 1517 1519 1521 1522 1524 1525 1526 1527 1528 1529 1529 1530 1531 1532 1533 1533 1534 1534 1535 1535
1452 1457 1461 1464 1470 1467 1458 1452 1452 1457 1462 1464 1470 1477 1484 1489 1494 1500 1502 1504 1508 1511 1513 1516 1519 1521 1523 1525 1526 1527 1528 1530 1531 1532 1533 1534 1534 1535 1536 1536 1536 1537 1538 1538
1448 1452 1459 1463 1471 1474 1464 1453 1453 1458 1468 1469 1473 1479 1484 1488 1492 1501 1504 1506 1509 1512 1515 1518 1521 1523 1526 1528 1529 1530 1532 1533 1534 1535 1536 1537 1537 1538 1538 1539 1539 1540 1540 1541
1451 1453 1457 1459 1465 1466 1458 1455 1455 1467 1475 1473 1475 1479 1484 1487 1491 1499 1503 1507 1511 1514 1517 1520 1523 1526 1528 1530 1531 1533 1535 1536 1537 1538 1539 1540 1540 1541 1541 1542 1542 1542 1543 1544
1447 1450 1454 1454 1464 1472 1459 1456 1462 1470 1471 1474 1478 1482 1486 1490 1495 1500 1504 1509 1512 1516 1520 1523 1526 1528 1531 1532 1534 1536 1537 1539 1540 1541 1542 1542 1543 1544 1544 1544 1545 1545 1546 1546
1443 1446 1448 1455 1463 1463 1463 1465 1468 1470 1473 1476 1480 1485 1489 1493 1498 1503 1507 1511 1515 1519 1522 1525 1528 1531 1533 1535 1537 1539 1541 1542 1543 1543 1544 1545 1546 1546 1547 1547 1547 1548 1548 1549
1442 1444 1446 1452 1459 1463 1466 1469 1471 1473 1476 1479 1483 1487 1491 1496 1501 1505 1510 1514 1518 1522 1525 1528 1530 1533 1536 1538 1540 1542 1543 1544 1545 1546 1547 1547 1548 1549 1549 1550 1550 1550 1550 1551
1444 1444 1447 1454 1460 1465 1468 1471 1474 1477 1480 1483 1487 1491 1494 1498 1503 1508 1512 1516 1520 1524 1527 1530 1533 1535 1538 1540 1542 1544 1546 1546 1547 1548 1549 1550 1550 1551 1551 1552 1552 1552 1552 1552
1441 1444 1447 1452 1457 1460 1469 1473 1476 1479 1483 1486 1490 1494 1498 1501 1505 1510 1514 1518 1522 1526 1529 1532 1535 1538 1540 1543 1545 1546 1548 1549 1550 1551 1551 1552 1552 1553 1553 1554 1554 1554 1554 1554